Time,TemperatureF,DewpointF,PressureIn,WindDirection,WindDirectionDegrees,WindSpeedMPH,WindSpeedGustMPH,Humidity,HourlyPrecipIn,Conditions,Clouds,dailyrainin,SolarRadiationWatts/m^2,SoftwareType,DateUTC
2013-04-02 00:01:00,60.4,-99.9,19.99,NW,319,2.0,3.0,255,0.00,,,0.00,0,Wunderground v.1.15,2013-04-02 04:01:00,
2013-04-02 00:10:00,60.3,-99.9,19.99,NW,319,2.0,3.0,255,0.00,,,0.00,0,Wunderground v.1.15,2013-04-02 04:10:00,
2013-04-02 00:21:00,60.1,-99.9,19.98,NW,319,0.0,3.0,255,0.00,,,0.00,0,Wunderground v.1.15,2013-04-02 04:21:00,
2013-04-02 00:30:00,60.1,-99.9,19.99,NW,319,0.0,4.0,255,0.00,,,0.00,0,Wunderground v.1.15,2013-04-02 04:30:00,
2013-04-02 00:40:00,59.3,-99.9,19.98,NW,319,0.0,4.0,255,0.00,,,0.00,0,Wunderground v.1.15,2013-04-02 04:40:00,
2013-04-02 00:50:00,58.7,-99.9,19.99,NW,319,0.0,4.0,255,0.00,,,0.00,0,Wunderground v.1.15,2013-04-02 04:50:00,
2013-04-02 01:00:00,59.2,-99.9,19.98,NW,319,0.0,3.0,255,0.00,,,0.00,0,Wunderground v.1.15,2013-04-02 05:00:00,
2013-04-02 01:10:00,59.3,-99.9,19.99,NW,319,3.0,3.0,255,0.00,,,0.00,0,Wunderground v.1.15,2013-04-02 05:10:00,
2013-04-02 01:20:00,59.9,-99.9,19.99,NNW,345,1.0,3.0,255,0.00,,,0.00,0,Wunderground v.1.15,2013-04-02 05:20:00,
2013-04-02 01:30:00,60.3,-99.9,19.99,NNW,347,1.0,3.0,255,0.00,,,0.00,0,Wunderground v.1.15,2013-04-02 05:30:00,
2013-04-02 01:40:00,60.2,-99.9,19.99,NNW,348,1.0,5.0,255,0.00,,,0.00,0,Wunderground v.1.15,2013-04-02 05:40:00,
2013-04-02 01:50:00,59.8,-99.9,19.99,NNW,348,0.0,5.0,255,0.00,,,0.00,0,Wunderground v.1.15,2013-04-02 05:50:00,
2013-04-02 02:00:00,59.5,-99.9,19.98,North,357,0.0,5.0,255,0.00,,,0.00,0,Wunderground v.1.15,2013-04-02 06:00:00,
2013-04-02 02:19:00,60.1,-99.9,19.99,North,356,4.0,5.0,255,0.00,,,0.00,0,Wunderground v.1.15,2013-04-02 06:19:00,
2013-04-02 02:30:00,60.1,-99.9,19.99,North,0,3.0,5.0,255,0.00,,,0.00,0,Wunderground v.1.15,2013-04-02 06:30:00,
2013-04-02 02:51:00,59.6,-99.9,19.99,North,350,3.0,6.0,255,0.00,,,0.00,0,Wunderground v.1.15,2013-04-02 06:51:00,
2013-04-02 03:01:00,59.7,-99.9,19.99,NNE,13,0.0,7.0,255,0.00,,,0.00,0,Wunderground v.1.15,2013-04-02 07:01:00,
2013-04-02 03:10:00,59.3,-99.9,19.98,North,0,0.0,7.0,255,0.00,,,0.00,0,Wunderground v.1.15,2013-04-02 07:10:00,
2013-04-02 03:20:00,59.0,-99.9,19.99,North,0,2.0,7.0,255,0.00,,,0.00,0,Wunderground v.1.15,2013-04-02 07:20:00,
2013-04-02 03:30:00,58.4,-99.9,19.99,North,0,1.0,6.0,255,0.00,,,0.00,0,Wunderground v.1.15,2013-04-02 07:30:00,
2013-04-02 03:40:00,58.0,-99.9,19.99,North,0,0.0,6.0,255,0.00,,,0.00,0,Wunderground v.1.15,2013-04-02 07:40:00,
2013-04-02 03:50:00,57.6,-99.9,19.99,North,0,1.0,6.0,255,0.00,,,0.00,0,Wunderground v.1.15,2013-04-02 07:50:00,
2013-04-02 04:00:00,57.4,-99.9,19.99,North,0,0.0,4.0,255,0.00,,,0.00,0,Wunderground v.1.15,2013-04-02 08:00:00,
2013-04-02 04:10:00,57.3,-99.9,19.99,North,0,0.0,4.0,255,0.00,,,0.00,0,Wunderground v.1.15,2013-04-02 08:10:00,
2013-04-02 04:20:00,56.8,-99.9,19.99,North,0,0.0,4.0,255,0.00,,,0.00,0,Wunderground v.1.15,2013-04-02 08:20:00,
2013-04-02 04:30:00,56.0,-99.9,19.98,North,0,0.0,4.0,255,0.00,,,0.00,0,Wunderground v.1.15,2013-04-02 08:30:00,
2013-04-02 04:40:00,55.7,-99.9,19.99,North,0,0.0,4.0,255,0.00,,,0.00,0,Wunderground v.1.15,2013-04-02 08:40:00,
2013-04-02 04:50:00,55.3,-99.9,19.99,North,0,2.0,4.0,255,0.00,,,0.00,0,Wunderground v.1.15,2013-04-02 08:50:00,
2013-04-02 05:00:00,55.0,-99.9,19.99,North,0,0.0,4.0,255,0.00,,,0.00,0,Wunderground v.1.15,2013-04-02 09:00:00,
2013-04-02 05:10:00,55.1,-99.9,19.99,North,0,0.0,4.0,255,0.00,,,0.00,0,Wunderground v.1.15,2013-04-02 09:10:00,
2013-04-02 05:19:00,54.7,-99.9,19.98,North,0,0.0,4.0,255,0.00,,,0.00,0,Wunderground v.1.15,2013-04-02 09:19:00,
2013-04-02 05:29:00,54.5,-99.9,19.99,North,0,2.0,4.0,255,0.00,,,0.00,0,Wunderground v.1.15,2013-04-02 09:29:00,
2013-04-02 05:41:00,54.3,-99.9,19.98,North,0,1.0,4.0,255,0.00,,,0.00,0,Wunderground v.1.15,2013-04-02 09:41:00,
2013-04-02 05:50:00,54.3,-99.9,19.99,North,0,3.0,4.0,255,0.00,,,0.00,0,Wunderground v.1.15,2013-04-02 09:50:00,
2013-04-02 06:00:00,54.1,-99.9,19.99,North,0,1.0,4.0,255,0.00,,,0.00,0,Wunderground v.1.15,2013-04-02 10:00:00,
2013-04-02 06:10:00,53.8,-99.9,19.99,North,0,2.0,4.0,255,0.00,,,0.00,0,Wunderground v.1.15,2013-04-02 10:10:00,
2013-04-02 06:20:00,53.7,-99.9,19.99,North,0,1.0,4.0,255,0.00,,,0.00,0,Wunderground v.1.15,2013-04-02 10:20:00,
2013-04-02 06:30:00,53.8,-99.9,19.99,North,0,1.0,3.0,255,0.00,,,0.00,0,Wunderground v.1.15,2013-04-02 10:30:00,
2013-04-02 06:40:00,53.6,-99.9,19.99,North,0,0.0,3.0,255,0.00,,,0.00,0,Wunderground v.1.15,2013-04-02 10:40:00,
2013-04-02 06:50:00,52.7,-99.9,19.99,North,0,0.0,3.0,255,0.00,,,0.00,0,Wunderground v.1.15,2013-04-02 10:50:00,
2013-04-02 07:00:00,52.6,-99.9,19.99,North,0,0.0,4.0,255,0.00,,,0.00,0,Wunderground v.1.15,2013-04-02 11:00:00,
2013-04-02 07:10:00,52.2,-99.9,19.99,North,0,0.0,4.0,255,0.00,,,0.00,0,Wunderground v.1.15,2013-04-02 11:10:00,
2013-04-02 07:20:00,52.5,-99.9,19.99,North,0,0.0,4.0,255,0.00,,,0.00,0,Wunderground v.1.15,2013-04-02 11:20:00,
2013-04-02 07:30:00,53.1,-99.9,19.99,North,0,0.0,4.0,255,0.00,,,0.00,0,Wunderground v.1.15,2013-04-02 11:30:00,
2013-04-02 07:40:00,54.0,-99.9,19.99,North,1,1.0,4.0,255,0.00,,,0.00,0,Wunderground v.1.15,2013-04-02 11:40:00,
2013-04-02 07:50:00,54.5,-99.9,19.99,NNE,16,4.0,4.0,255,0.00,,,0.00,0,Wunderground v.1.15,2013-04-02 11:50:00,
2013-04-02 08:00:00,55.5,-99.9,19.99,NNE,18,2.0,4.0,255,0.00,,,0.00,0,Wunderground v.1.15,2013-04-02 12:00:00,
2013-04-02 08:10:00,56.4,-99.9,19.99,NNE,28,9.0,9.0,255,0.00,,,0.00,0,Wunderground v.1.15,2013-04-02 12:10:00,
2013-04-02 08:20:00,57.3,-99.9,19.99,NE,37,3.0,7.0,255,0.00,,,0.00,0,Wunderground v.1.15,2013-04-02 12:20:00,
2013-04-02 08:29:00,57.6,-99.9,19.99,NNE,19,5.0,7.0,255,0.00,,,0.00,0,Wunderground v.1.15,2013-04-02 12:29:00,
2013-04-02 08:51:00,58.4,-99.9,19.99,NE,48,8.0,13.0,255,0.00,,,0.00,0,Wunderground v.1.15,2013-04-02 12:51:00,
2013-04-02 09:01:00,58.5,-99.9,19.99,East,83,8.0,12.0,255,0.00,,,0.00,0,Wunderground v.1.15,2013-04-02 13:01:00,
2013-04-02 09:11:00,59.1,-99.9,19.98,ENE,73,8.0,12.0,255,0.00,,,0.00,0,Wunderground v.1.15,2013-04-02 13:11:00,
2013-04-02 09:20:00,58.7,-99.9,19.98,ESE,118,3.0,12.0,255,0.00,,,0.00,0,Wunderground v.1.15,2013-04-02 13:20:00,
2013-04-02 09:30:00,58.4,-99.9,19.99,ENE,63,6.0,21.0,255,0.00,,,0.00,0,Wunderground v.1.15,2013-04-02 13:30:00,
2013-04-02 09:40:00,57.8,-99.9,19.99,ESE,123,10.0,21.0,255,0.00,,,0.00,0,Wunderground v.1.15,2013-04-02 13:40:00,
2013-04-02 09:50:00,59.0,-99.9,19.98,SE,139,13.0,21.0,255,0.00,,,0.00,0,Wunderground v.1.15,2013-04-02 13:50:00,
2013-04-02 10:00:00,59.1,-99.9,19.99,ESE,109,3.0,21.0,255,0.00,,,0.00,0,Wunderground v.1.15,2013-04-02 14:00:00,
2013-04-02 10:10:00,58.7,-99.9,19.99,SE,133,15.0,21.0,255,0.00,,,0.00,0,Wunderground v.1.15,2013-04-02 14:10:00,
2013-04-02 10:20:00,60.0,-99.9,19.99,NE,51,13.0,21.0,255,0.00,,,0.00,0,Wunderground v.1.15,2013-04-02 14:20:00,
2013-04-02 10:30:00,58.8,-99.9,19.99,SE,138,9.0,21.0,255,0.00,,,0.00,0,Wunderground v.1.15,2013-04-02 14:30:00,
2013-04-02 10:40:00,59.4,-99.9,19.99,ESE,116,9.0,20.0,255,0.00,,,0.00,0,Wunderground v.1.15,2013-04-02 14:40:00,
2013-04-02 10:50:00,58.6,-99.9,19.99,SE,136,10.0,20.0,255,0.00,,,0.00,0,Wunderground v.1.15,2013-04-02 14:50:00,
2013-04-02 11:00:00,58.6,-99.9,19.98,ESE,123,8.0,20.0,255,0.00,,,0.00,0,Wunderground v.1.15,2013-04-02 15:00:00,
2013-04-02 11:10:00,60.0,-99.9,19.99,East,80,11.0,29.0,255,0.00,,,0.00,0,Wunderground v.1.15,2013-04-02 15:10:00,
2013-04-02 11:19:00,59.5,-99.9,19.99,SE,136,14.0,29.0,255,0.00,,,0.00,0,Wunderground v.1.15,2013-04-02 15:19:00,
2013-04-02 11:30:00,59.7,-99.9,19.99,ENE,69,6.0,29.0,255,0.00,,,0.00,0,Wunderground v.1.15,2013-04-02 15:30:00,
2013-04-02 11:51:00,59.3,-99.9,19.99,SE,145,12.0,23.0,255,0.00,,,0.00,0,Wunderground v.1.15,2013-04-02 15:51:00,
2013-04-02 12:01:00,59.8,-99.9,19.98,ENE,65,4.0,23.0,255,0.00,,,0.00,0,Wunderground v.1.15,2013-04-02 16:01:00,
2013-04-02 12:10:00,59.4,-99.9,19.99,ESE,123,17.0,23.0,255,0.00,,,0.00,0,Wunderground v.1.15,2013-04-02 16:10:00,
2013-04-02 12:30:00,59.3,-99.9,19.98,SE,129,10.0,24.0,255,0.00,,,0.00,0,Wunderground v.1.15,2013-04-02 16:30:00,
2013-04-02 12:40:00,59.7,-99.9,19.98,SSE,149,16.0,24.0,255,0.00,,,0.00,0,Wunderground v.1.15,2013-04-02 16:40:00,
2013-04-02 12:50:00,59.7,-99.9,19.98,SE,141,15.0,24.0,255,0.00,,,0.00,0,Wunderground v.1.15,2013-04-02 16:50:00,
2013-04-02 13:00:00,58.3,-99.9,19.99,SE,127,22.0,25.0,255,0.00,,,0.00,0,Wunderground v.1.15,2013-04-02 17:00:00,
2013-04-02 13:10:00,58.6,-99.9,19.99,SE,126,12.0,25.0,255,0.00,,,0.00,0,Wunderground v.1.15,2013-04-02 17:10:00,
2013-04-02 13:20:00,58.7,-99.9,19.98,ESE,112,8.0,25.0,255,0.00,,,0.00,0,Wunderground v.1.15,2013-04-02 17:20:00,
2013-04-02 13:30:00,58.2,-99.9,19.99,ESE,114,10.0,25.0,255,0.00,,,0.00,0,Wunderground v.1.15,2013-04-02 17:30:00,
2013-04-02 13:40:00,58.5,-99.9,19.98,ESE,110,10.0,24.0,255,0.00,,,0.00,0,Wunderground v.1.15,2013-04-02 17:40:00,
2013-04-02 13:50:00,58.4,-99.9,19.99,SSE,147,12.0,24.0,255,0.00,,,0.00,0,Wunderground v.1.15,2013-04-02 17:50:00,
2013-04-02 14:00:00,57.7,-99.9,19.99,ESE,122,16.0,24.0,255,0.00,,,0.00,0,Wunderground v.1.15,2013-04-02 18:00:00,
2013-04-02 14:09:00,58.4,-99.9,19.99,ESE,117,11.0,25.0,255,0.00,,,0.00,0,Wunderground v.1.15,2013-04-02 18:09:00,
2013-04-02 14:20:00,58.7,-99.9,19.99,East,88,15.0,25.0,255,0.00,,,0.00,0,Wunderground v.1.15,2013-04-02 18:20:00,
2013-04-02 14:29:00,58.3,-99.9,19.99,SSE,147,11.0,25.0,255,0.00,,,0.00,0,Wunderground v.1.15,2013-04-02 18:29:00,
2013-04-02 14:41:00,58.3,-99.9,19.98,SE,143,14.0,24.0,255,0.00,,,0.00,0,Wunderground v.1.15,2013-04-02 18:41:00,
2013-04-02 14:50:00,58.5,-99.9,19.99,SSE,164,14.0,24.0,255,0.00,,,0.00,0,Wunderground v.1.15,2013-04-02 18:50:00,
2013-04-02 15:00:00,58.8,-99.9,19.98,SE,127,11.0,23.0,255,0.00,,,0.00,0,Wunderground v.1.15,2013-04-02 19:00:00,
2013-04-02 15:10:00,58.3,-99.9,19.99,SE,143,12.0,23.0,255,0.00,,,0.00,0,Wunderground v.1.15,2013-04-02 19:10:00,
2013-04-02 15:20:00,58.1,-99.9,19.99,SSE,157,13.0,23.0,255,0.00,,,0.00,0,Wunderground v.1.15,2013-04-02 19:20:00,
2013-04-02 15:30:00,58.0,-99.9,19.98,SE,143,11.0,27.0,255,0.00,,,0.00,0,Wunderground v.1.15,2013-04-02 19:30:00,
2013-04-02 15:40:00,58.6,-99.9,19.98,SE,139,10.0,27.0,255,0.00,,,0.00,0,Wunderground v.1.15,2013-04-02 19:40:00,
2013-04-02 15:50:00,58.9,-99.9,19.99,ESE,120,11.0,27.0,255,0.00,,,0.00,0,Wunderground v.1.15,2013-04-02 19:50:00,
2013-04-02 16:00:00,59.1,-99.9,19.99,SE,130,14.0,27.0,255,0.00,,,0.00,0,Wunderground v.1.15,2013-04-02 20:00:00,
2013-04-02 16:10:00,58.6,-99.9,19.99,SE,144,10.0,21.0,255,0.00,,,0.00,0,Wunderground v.1.15,2013-04-02 20:10:00,
2013-04-02 16:20:00,59.4,-99.9,19.99,SSE,150,5.0,21.0,255,0.00,,,0.00,0,Wunderground v.1.15,2013-04-02 20:20:00,
2013-04-02 16:30:00,57.8,-99.9,19.99,SE,139,19.0,21.0,255,0.00,,,0.00,0,Wunderground v.1.15,2013-04-02 20:30:00,
2013-04-02 16:40:00,58.0,-99.9,19.99,ESE,123,13.0,22.0,255,0.00,,,0.00,0,Wunderground v.1.15,2013-04-02 20:40:00,
2013-04-02 16:50:00,58.5,-99.9,19.99,SE,144,12.0,22.0,255,0.00,,,0.00,0,Wunderground v.1.15,2013-04-02 20:50:00,
2013-04-02 17:00:00,58.2,-99.9,19.98,SSE,152,6.0,22.0,255,0.00,,,0.00,0,Wunderground v.1.15,2013-04-02 21:00:00,
2013-04-02 17:09:00,58.2,-99.9,19.98,SSE,161,19.0,23.0,255,0.00,,,0.00,0,Wunderground v.1.15,2013-04-02 21:09:00,
2013-04-02 17:20:00,59.0,-99.9,19.99,SE,141,8.0,23.0,255,0.00,,,0.00,0,Wunderground v.1.15,2013-04-02 21:20:00,
2013-04-02 17:29:00,58.6,-99.9,19.99,SSE,166,8.0,23.0,255,0.00,,,0.00,0,Wunderground v.1.15,2013-04-02 21:29:00,
2013-04-02 17:50:00,58.5,-99.9,19.99,SSE,161,14.0,20.0,255,0.00,,,0.00,0,Wunderground v.1.15,2013-04-02 21:50:00,
2013-04-02 18:00:00,58.2,-99.9,19.99,ESE,121,12.0,20.0,255,0.00,,,0.00,0,Wunderground v.1.15,2013-04-02 22:00:00,
2013-04-02 18:10:00,58.4,-99.9,19.98,SSE,149,9.0,20.0,255,0.00,,,0.00,0,Wunderground v.1.15,2013-04-02 22:10:00,
2013-04-02 18:20:00,58.7,-99.9,19.99,SSE,166,14.0,20.0,255,0.00,,,0.00,0,Wunderground v.1.15,2013-04-02 22:20:00,
2013-04-02 18:30:00,58.5,-99.9,19.99,SE,130,15.0,17.0,255,0.00,,,0.00,0,Wunderground v.1.15,2013-04-02 22:30:00,
2013-04-02 18:40:00,58.2,-99.9,19.99,SSE,156,7.0,17.0,255,0.00,,,0.00,0,Wunderground v.1.15,2013-04-02 22:40:00,
2013-04-02 18:50:00,58.1,-99.9,19.99,SE,140,11.0,17.0,255,0.00,,,0.00,0,Wunderground v.1.15,2013-04-02 22:50:00,
2013-04-02 19:20:00,57.9,-99.9,19.99,SSE,152,8.0,17.0,255,0.00,,,0.00,0,Wunderground v.1.15,2013-04-02 23:20:00,
2013-04-02 19:30:00,57.8,-99.9,19.99,SE,146,4.0,17.0,255,0.00,,,0.00,0,Wunderground v.1.15,2013-04-02 23:30:00,
2013-04-02 19:40:00,57.6,-99.9,19.99,SE,146,5.0,16.0,255,0.00,,,0.00,0,Wunderground v.1.15,2013-04-02 23:40:00,
2013-04-02 19:50:00,57.5,-99.9,19.99,SE,146,3.0,16.0,255,0.00,,,0.00,0,Wunderground v.1.15,2013-04-02 23:50:00,
2013-04-02 20:00:00,57.2,-99.9,19.99,SE,145,4.0,16.0,255,0.00,,,0.00,0,Wunderground v.1.15,2013-04-03 00:00:00,
2013-04-02 20:09:00,57.2,-99.9,19.99,SE,145,3.0,9.0,255,0.00,,,0.00,0,Wunderground v.1.15,2013-04-03 00:09:00,
2013-04-02 20:20:00,57.2,-99.9,19.99,SE,145,4.0,9.0,255,0.00,,,0.00,0,Wunderground v.1.15,2013-04-03 00:20:00,
2013-04-02 20:41:00,56.7,-99.9,19.98,SE,145,0.0,6.0,255,0.00,,,0.00,0,Wunderground v.1.15,2013-04-03 00:41:00,
2013-04-02 20:50:00,56.1,-99.9,19.98,SE,145,0.0,6.0,255,0.00,,,0.00,0,Wunderground v.1.15,2013-04-03 00:50:00,
2013-04-02 21:00:00,56.0,-99.9,19.99,SE,145,2.0,4.0,255,0.00,,,0.00,0,Wunderground v.1.15,2013-04-03 01:00:00,
2013-04-02 21:10:00,56.2,-99.9,19.99,SE,145,1.0,4.0,255,0.00,,,0.00,0,Wunderground v.1.15,2013-04-03 01:10:00,
2013-04-02 21:20:00,56.2,-99.9,19.99,SE,145,0.0,4.0,255,0.00,,,0.00,0,Wunderground v.1.15,2013-04-03 01:20:00,
2013-04-02 21:30:00,56.3,-99.9,19.98,SE,145,1.0,4.0,255,0.00,,,0.00,0,Wunderground v.1.15,2013-04-03 01:30:00,
2013-04-02 21:40:00,56.3,-99.9,19.99,SE,145,4.0,4.0,255,0.00,,,0.00,0,Wunderground v.1.15,2013-04-03 01:40:00,
2013-04-02 21:50:00,56.5,-99.9,19.99,SE,145,2.0,4.0,255,0.00,,,0.00,0,Wunderground v.1.15,2013-04-03 01:50:00,
2013-04-02 22:00:00,56.5,-99.9,19.99,SE,145,2.0,5.0,255,0.00,,,0.00,0,Wunderground v.1.15,2013-04-03 02:00:00,
2013-04-02 22:10:00,56.9,-99.9,19.99,SE,145,2.0,5.0,255,0.00,,,0.00,0,Wunderground v.1.15,2013-04-03 02:10:00,
2013-04-02 22:30:00,57.1,-99.9,19.99,SE,145,2.0,5.0,255,0.00,,,0.00,0,Wunderground v.1.15,2013-04-03 02:30:00,
2013-04-02 22:40:00,57.0,-99.9,19.99,SE,145,4.0,5.0,255,0.00,,,0.00,0,Wunderground v.1.15,2013-04-03 02:40:00,
2013-04-02 22:50:00,57.1,-99.9,19.99,SE,145,2.0,5.0,255,0.00,,,0.00,0,Wunderground v.1.15,2013-04-03 02:50:00,
2013-04-02 22:59:00,57.1,-99.9,19.99,SE,145,5.0,5.0,255,0.00,,,0.00,0,Wunderground v.1.15,2013-04-03 02:59:00,
2013-04-02 23:09:00,57.1,-99.9,19.99,SE,145,3.0,5.0,255,0.00,,,0.00,0,Wunderground v.1.15,2013-04-03 03:09:00,
2013-04-02 23:20:00,57.3,-99.9,19.99,SE,145,3.0,5.0,255,0.00,,,0.00,0,Wunderground v.1.15,2013-04-03 03:20:00,
2013-04-02 23:31:00,57.5,-99.9,19.99,SSE,156,3.0,5.0,255,0.00,,,0.00,0,Wunderground v.1.15,2013-04-03 03:31:00,
2013-04-02 23:41:00,57.7,-99.9,19.99,SSE,156,2.0,6.0,255,0.00,,,0.00,0,Wunderground v.1.15,2013-04-03 03:41:00,
2013-04-02 23:50:00,57.8,-99.9,19.99,SSE,156,2.0,6.0,255,0.00,,,0.00,0,Wunderground v.1.15,2013-04-03 03:50:00,